2023/01/28 00:00:00,19.7,-0.6
2023/01/28 00:10:00,20.4,-0.7
2023/01/28 00:20:00,21.0,-0.8
2023/01/28 00:30:00,21.7,-0.4
2023/01/28 00:40:00,22.1,-0.3
2023/01/28 00:50:00,22.5,-0.7
2023/01/28 01:00:00,22.9,-1.1
2023/01/28 01:10:00,23.3,-0.6
2023/01/28 01:20:00,23.4,-0.6
2023/01/28 01:30:00,24.9,-0.7
2023/01/28 01:40:00,25.7,-1.0
2023/01/28 01:50:00,25.9,-0.7
2023/01/28 02:00:00,26.2,-0.7
2023/01/28 02:10:00,27.0,-0.3
2023/01/28 02:20:00,27.3,-0.7
2023/01/28 02:30:00,27.8,-1.1
2023/01/28 02:40:00,28.5,-0.7
2023/01/28 02:50:00,29.0,-0.7
2023/01/28 03:00:00,29.8,-0.6
2023/01/28 03:10:00,31.3,-0.7
2023/01/28 03:20:00,31.4,-0.6
2023/01/28 03:30:00,31.1,-0.7
2023/01/28 03:40:00,28.9,-0.7
2023/01/28 03:50:00,31.3,-0.5
2023/01/28 04:00:00,32.9,-0.6
2023/01/28 04:10:00,33.4,-0.8
2023/01/28 04:20:00,34.1,-1.0
2023/01/28 04:30:00,34.0,-0.8
2023/01/28 04:40:00,33.9,-0.5
2023/01/28 04:50:00,34.0,-0.5
2023/01/28 05:00:00,34.4,-0.8
2023/01/28 05:10:00,30.7,-1.1
2023/01/28 05:20:00,30.0,-1.0
2023/01/28 05:30:00,31.9,-1.1
2023/01/28 05:40:00,33.0,-0.7
2023/01/28 05:50:00,33.9,-1.1
2023/01/28 06:00:00,34.8,-0.8
2023/01/28 06:10:00,36.1,-0.9
2023/01/28 06:20:00,37.2,-1.1
2023/01/28 06:30:00,34.7,-0.9
2023/01/28 06:40:00,33.1,-1.0
2023/01/28 06:50:00,33.2,-0.7
2023/01/28 07:00:00,33.9,-1.1
2023/01/28 07:10:00,34.8,-0.8
2023/01/28 07:20:00,36.0,-0.9
2023/01/28 07:30:00,35.9,-0.9
2023/01/28 07:40:00,36.3,-0.7
2023/01/28 07:50:00,36.7,-0.8
2023/01/28 08:00:00,37.1,-0.9
2023/01/28 08:10:00,37.6,-0.6
2023/01/28 08:20:00,37.8,-0.6
2023/01/28 08:30:00,37.9,-0.7
2023/01/28 08:40:00,38.6,-1.0
2023/01/28 08:50:00,39.1,-0.5
2023/01/28 09:00:00,39.4,-0.6
2023/01/28 09:10:00,39.3,-0.5
2023/01/28 09:20:00,39.7,-0.4
2023/01/28 09:30:00,36.2,-0.2
2023/01/28 09:40:00,36.4,-0.4
2023/01/28 09:50:00,38.6,-0.3
2023/01/28 10:00:00,43.3, 0.7
2023/01/28 10:10:00,43.2, 3.8
2023/01/28 10:20:00,42.5, 6.0
2023/01/28 10:30:00,40.9, 3.9
2023/01/28 10:40:00,40.6, 3.3
2023/01/28 10:50:00,36.9, 4.6
2023/01/28 11:00:00,36.6, 3.3
2023/01/28 11:10:00,36.1, 3.9
2023/01/28 11:20:00,36.3, 4.8
2023/01/28 11:30:00,36.3, 3.3
2023/01/28 11:40:00,36.2, 1.9
2023/01/28 11:50:00,37.2, 4.8
2023/01/28 12:00:00,36.7, 9.7
2023/01/28 12:10:00,36.1, 7.8
2023/01/28 12:20:00,35.4, 6.2
2023/01/28 12:30:00,34.8, 7.1
2023/01/28 12:40:00,34.5, 4.4
2023/01/28 12:50:00,34.0, 3.0
2023/01/28 13:00:00,33.7, 2.4
2023/01/28 13:10:00,34.1, 2.7
2023/01/28 13:20:00,34.4, 3.1
2023/01/28 13:30:00,34.0, 4.9
2023/01/28 13:40:00,33.6, 2.7
2023/01/28 13:50:00,33.8, 1.8
2023/01/28 14:00:00,33.9, 2.4
2023/01/28 14:10:00,33.9, 4.4
2023/01/28 14:20:00,33.9, 9.6
2023/01/28 14:30:00,33.8, 3.9
2023/01/28 14:40:00,33.3, 1.8
2023/01/28 14:50:00,33.4, 0.8
2023/01/28 15:00:00,33.5, 2.4
2023/01/28 15:10:00,33.3, 3.5
2023/01/28 15:20:00,33.1, 5.0
2023/01/28 15:30:00,32.6, 9.9
2023/01/28 15:40:00,32.1, 9.7
2023/01/28 15:50:00,32.1, 8.4
2023/01/28 16:00:00,32.0, 8.7
2023/01/28 16:10:00,31.8, 6.0
2023/01/28 16:20:00,31.7, 3.4
2023/01/28 16:30:00,31.8, 2.0
2023/01/28 16:40:00,31.5, 3.9
2023/01/28 16:50:00,31.5, 1.5
2023/01/28 17:00:00,31.4, 0.4
2023/01/28 17:10:00,31.3,-0.5
2023/01/28 17:20:00,31.2,-0.5
2023/01/28 17:30:00,30.9,-0.6
2023/01/28 17:40:00,30.7,-0.9
2023/01/28 17:50:00,30.5,-1.0
2023/01/28 18:00:00,30.3,-0.9
2023/01/28 18:10:00,30.2,-0.8
2023/01/28 18:20:00,30.3,-0.9
2023/01/28 18:30:00,30.0,-1.1
2023/01/28 18:40:00,29.8,-1.1
2023/01/28 18:50:00,29.7,-1.4
2023/01/28 19:00:00,29.7,-1.3
2023/01/28 19:10:00,29.6,-1.3
2023/01/28 19:20:00,29.8,-2.0
2023/01/28 19:30:00,30.1,-2.1
2023/01/28 19:40:00,30.2,-1.3
2023/01/28 19:50:00,31.4,-1.9
2023/01/28 20:00:00,31.3,-2.0
2023/01/28 20:10:00,31.2,-1.6
2023/01/28 20:20:00,31.2,-2.2
2023/01/28 20:30:00,31.3,-2.0
2023/01/28 20:40:00,32.1,-2.0
2023/01/28 20:50:00,33.1,-2.2
2023/01/28 21:00:00,33.6,-2.1
2023/01/28 21:10:00,33.8,-2.6
2023/01/28 21:20:00,33.7,-2.2
2023/01/28 21:30:00,33.9,-2.2
2023/01/28 21:40:00,33.9,-2.1
2023/01/28 21:50:00,34.0,-2.4
2023/01/28 22:00:00,33.9,-2.3
2023/01/28 22:10:00,33.8,-2.6
2023/01/28 22:20:00,33.8,-2.6
2023/01/28 22:30:00,33.7,-2.7
2023/01/28 22:40:00,33.6,-2.2
2023/01/28 22:50:00,33.7,-1.9
2023/01/28 23:00:00,34.0,-2.3
2023/01/28 23:10:00,33.9,-2.3
2023/01/28 23:20:00,33.8,-2.4
2023/01/28 23:30:00,33.8,-2.4
2023/01/28 23:40:00,33.6,-2.6
2023/01/28 23:50:00,33.5,-3.3
